This demonstration page uses our WeatherBlox Daily Observations layout. Learn more.

Left ArrowRight Arrow

47.50024, -111.30081

Hourly Observations for June 30, 2020

Temp ( °F °C ) Dew Point ( °F °C ) Humidity (%) Winds ( mph kmh ) Pressure ( in mb ) Visibility ( mi km ) Precip ( " mm )
12:11 am 00:11 Cloudy with Light Rain 50 10 48 8.9 93 93 SW 10 17 29.81 1009 10 16 0.00 0.00
12:21 am 00:21 Cloudy with Light Rain 50 10 48 8.9 93 93 WSW 9 15 29.80 1009 10 16 0.00 0.00
12:53 am 00:53 Cloudy with Light Rain 50 10 47 8.3 89 89 WSW 12 19 29.82 1010 10 16 0.00 0.00
1:53 am 01:53 Cloudy 49 9.4 46 7.8 90 90 SW 10 17 29.83 1010 10 16 0.00 0.00
2:53 am 02:53 Cloudy 48 8.9 45 7.2 89 89 SW 9 15 29.82 1010 10 16 0.00 0.00
3:53 am 03:53 Clear 45 7.2 43 6.1 93 93 SSW 10 17 29.83 1010 10 16 0.00 0.00
4:53 am 04:53 Clear 43 6.1 40 4.4 89 89 SSW 5 7 29.83 1010 10 16 0.00 0.00
5:53 am 05:53 Sunny 44 6.7 40 4.4 85 85 SSW 10 17 29.81 1010 10 16 0.00 0.00
6:53 am 06:53 Sunny 46 7.8 41 5 83 83 SSW 14 22 29.79 1009 10 16 0.00 0.00
7:53 am 07:53 Sunny 50 10 43 6.1 77 77 WSW 9 15 29.77 1008 10 16 0.00 0.00
8:53 am 08:53 Sunny 54 12.2 45 7.2 72 72 SSW 13 20 29.78 1008 10 16 0.00 0.00
9:53 am 09:53 Sunny 58 14.4 44 6.7 60 60 SW 16 26 29.76 1008 10 16 0.00 0.00
10:53 am 10:53 Sunny 61 16.1 43 6.1 52 52 SW 17 28 29.73 1007 10 16 0.00 0.00
11:53 am 11:53 Sunny 62 16.7 42 5.6 48 48 WSW 23 37 29.72 1007 10 16 0.00 0.00
12:53 pm 12:53 Mostly Sunny 63 17.2 42 5.6 47 47 SW 20 31 29.72 1006 10 16 0.00 0.00
1:53 pm 13:53 Sunny 64 17.8 42 5.6 45 45 SW 21 33 29.70 1006 10 16 0.00 0.00
2:53 pm 14:53 Partly Cloudy 62 16.7 42 5.6 48 48 SW 18 30 29.72 1006 10 16 0.00 0.00
3:15 pm 15:15 Mostly Cloudy 60 15.6 42 5.6 52 52 W 24 39 29.64 1004 10 16 0.00 0.00
3:53 pm 15:53 Cloudy 59 15 42 5.6 54 54 WSW 17 28 29.76 1008 10 16 0.00 0.00
4:53 pm 16:53 Mostly Cloudy 59 15 44 6.7 58 58 SW 21 33 29.75 1008 10 16 0.00 0.00
5:53 pm 17:53 Mostly Sunny 62 16.7 43 6.1 50 50 WSW 15 24 29.76 1008 10 16 0.00 0.00
6:53 pm 18:53 Mostly Cloudy 61 16.1 45 7.2 56 56 SW 18 30 29.74 1007 10 16 0.00 0.00
7:53 pm 19:53 Mostly Cloudy 58 14.4 44 6.7 60 60 SW 16 26 29.74 1007 10 16 0.00 0.00
8:53 pm 20:53 Sunny 57 13.9 43 6.1 60 60 SW 14 22 29.73 1007 10 16 0.00 0.00
9:53 pm 21:53 Clear 54 12.2 42 5.6 64 64 SW 13 20 29.73 1007 10 16 0.00 0.00
10:08 pm 22:08 Mostly Clear 55 12.8 42 5.6 62 62 SW 16 26 29.68 1005 10 16 0.00 0.00
10:53 pm 22:53 Clear 55 12.8 41 5 59 59 SSW 18 30 29.71 1006 10 16 0.00 0.00
11:53 pm 23:53 Clear 55 12.8 40 4.4 57 57 SSW 17 28 29.71 1006 10 16 0.00 0.00

Powered by AerisWeather